Regional Weather Roundup
Issued by NWS Goodland, KS

Home | Current Version | Previous Version | Graphics & Text | Print | Product List | Glossary On
Versions: 1 2 3 4 5 6 7 8 9 10 11 12 13 14 15 16 17 18 19 20 21 22 23 24 25 26 27 28 29 30 31 32 33 34 35 36 37 38 39 40 41 42 43 44 45 46 47 48 49 50
000
ASUS43 KGLD 272359
RWRGLD

GOODLAND FORECAST AREA HOURLY WEATHER ROUNDUP
NATIONAL WEATHER SERVICE GOODLAND KS
600 PM MDT MON APR 27 2015

...OFFICIAL OBSERVATIONS...

CITY           SKY/WX    TMP DP  RH WIND       PRES   REMARKS
GOODLAND KS    MOSUNNY   59  32  36 NE17G25   30.18S
HILL CITY KS   MOSUNNY   62  34  35 NE18      30.14S
IMPERIAL NEB   PTSUNNY   60  31  33 NE12      30.19S
MCCOOK NEB     PTSUNNY   65  32  29 NE15      30.15S
AKRON CO       PTSUNNY   52  36  54 N10       30.24S
BURLINGTON CO  MOSUNNY   56  29  35 NE20G25   30.20R
LIMON CO       PTSUNNY   48  34  58 N16       30.25R
$$

...UNOFFICIAL OBSERVATIONS...

CITY           SKY/WX    TMP DP  RH WIND       PRES   REMARKS
COLBY KS       SUNNY     61  34  36 N15       30.18S
GOVE KS          N/A     61  32  33 MISG        N/A
LENORA KS        N/A     61  32  33 MISG        N/A
NORTON KS      SUNNY     61  30  31 NE10      30.14R
SHARON SPRINGS   N/A     57  34  42 N16G23      N/A
KIT CARSON CO    N/A     54  34  46 MISG        N/A
YUMA CO          N/A     54  35  48 NE10        N/A
$$


USA.gov is the U.S. government's official web portal to all federal, state and local government web resources and services.